GW5922 Weather Reports


time (UTC)temp
C
wind
direction
speed
KPH
gust
KPH
rain 1hr
cm
rain 24hr
cm
rain mn
cm
humidity
%
barometer
mb
20260510120226 11 283 3.2 6.4 0.00 0.00 0.00 97 1012.0
20260510115721 11 258 1.6 4.8 0.00 0.00 0.00 97 1012.0
20260510115220 11 269 1.6 4.8 0.00 0.00 0.00 97 1011.7
20260510114714 10 275 1.6 3.2 0.00 0.00 0.00 97 1011.7
20260510114212 10 286 1.6 3.2 0.00 0.00 0.00 97 1011.7
20260510113707 10 347 0.0 1.6 0.00 0.00 0.00 97 1011.7
20260510113204 10 31 0.0 1.6 0.00 0.00 0.00 97 1011.7
20260510112700 10 31 0.0 1.6 0.00 0.00 0.00 97 1011.7
20260510112158 10 31 0.0 1.6 0.00 0.00 0.00 97 1011.3
20260510111653 10 31 0.0 1.6 0.00 0.00 0.00 97 1011.3
20260510111150 10 31 0.0 1.6 0.00 0.00 0.00 97 1011.3
20260510110645 10 31 0.0 1.6 0.00 0.00 0.00 97 1011.3
20260510110143 10 31 0.0 3.2 0.00 0.00 0.00 97 1011.3
20260510105638 10 31 1.6 4.8 0.00 0.00 0.00 97 1011.3
20260510105132 10 31 1.6 4.8 0.00 0.00 0.00 97 1011.0
20260510104630 10 85 0.0 3.2 0.00 0.00 0.00 97 1011.0
20260510104126 10 84 1.6 3.2 0.00 0.00 0.00 97 1011.0
20260510103623 10 63 0.0 3.2 0.00 0.00 0.00 97 1011.0
20260510103119 10 3 0.0 3.2 0.00 0.00 0.00 97 1011.0
20260510102615 10 3 0.0 1.6 0.00 0.00 0.00 97 1011.0
20260510102111 10 3 0.0 1.6 0.00 0.00 0.00 97 1011.0
20260510101609 10 3 0.0 1.6 0.00 0.00 0.00 97 1011.0
20260510101107 10 3 1.6 3.2 0.00 0.00 0.00 97 1010.6
20260510100603 10 3 1.6 4.8 0.00 0.00 0.00 97 1010.6
20260510100100 10 3 1.6 4.8 0.00 0.00 0.00 97 1010.6
20260510095556 10 25 1.6 3.2 0.00 0.00 0.00 97 1010.6
20260510095055 10 25 1.6 3.2 0.00 0.00 0.00 97 1010.3
20260510094550 10 25 1.6 3.2 0.00 0.00 0.00 97 1010.3
20260510094046 10 25 1.6 3.2 0.00 0.00 0.00 97 1010.6
20260510093542 10 104 1.6 4.8 0.00 0.00 0.00 97 1010.6
20260510093039 10 105 1.6 4.8 0.00 0.00 0.00 97 1010.3
20260510092536 10 115 1.6 3.2 0.00 0.00 0.00 97 1010.3
20260510092035 10 115 1.6 3.2 0.00 0.00 0.00 97 1010.6
20260510091532 10 115 1.6 3.2 0.00 0.00 0.00 97 1010.6
20260510091028 10 93 1.6 3.2 0.00 0.00 0.00 97 1010.6
20260510090526 10 110 0.0 3.2 0.00 0.00 0.00 96 1010.3
20260510090021 10 140 0.0 4.8 0.00 0.00 0.00 96 1010.3
20260510085521 10 140 1.6 6.4 0.00 0.00 0.00 96 1010.3
20260510085017 10 135 3.2 8.0 0.00 0.00 0.00 96 1010.3
20260510084514 10 136 3.2 9.7 0.00 0.00 0.00 96 1010.3
20260510084011 10 156 6.4 9.7 0.00 0.00 0.00 96 1010.3
20260510083508 10 128 6.4 9.7 0.00 0.00 0.00 96 1010.3
20260510083004 10 132 4.8 9.7 0.00 0.00 0.00 96 1010.3
20260510082501 10 134 1.6 8.0 0.00 0.00 0.00 96 1010.6
20260510082000 10 177 1.6 4.8 0.00 0.00 0.00 97 1010.3
20260510081456 10 128 1.6 3.2 0.00 0.00 0.00 97 1010.3
20260510080952 10 201 1.6 3.2 0.00 0.00 0.00 97 1010.3
20260510080450 10 153 0.0 1.6 0.00 0.00 0.00 97 1010.6
20260510075948 10 153 1.6 1.6 0.00 0.00 0.00 97 1010.3
20260510075445 10 153 1.6 1.6 0.00 0.00 0.00 97 1010.6
20260510074942 10 279 0.0 1.6 0.00 0.00 0.00 97 1010.6
20260510074439 10 279 0.0 1.6 0.00 0.00 0.00 97 1010.6
20260510073936 10 279 0.0 3.2 0.00 0.00 0.00 97 1010.6
20260510073431 10 279 0.0 3.2 0.00 0.00 0.00 97 1010.6
20260510072928 10 283 0.0 1.6 0.00 0.00 0.00 97 1010.6
20260510072425 10 271 0.0 3.2 0.00 0.00 0.00 97 1010.6
20260510071920 10 271 1.6 4.8 0.00 0.00 0.00 97 1010.6
20260510071417 10 321 3.2 8.0 0.00 0.00 0.00 97 1010.6
20260510070916 10 316 4.8 11.3 0.00 0.00 0.00 97 1010.6
20260510070413 10 309 4.8 11.3 0.00 0.00 0.00 97 1010.6
20260510065908 10 299 3.2 11.3 0.00 0.00 0.00 96 1010.6
20260510065405 9 354 0.0 3.2 0.00 0.00 0.00 96 1010.3
20260510064901 9 1 0.0 0.0 0.00 0.00 0.00 96 1010.3
20260510064359 9 1 0.0 0.0 0.00 0.00 0.00 96 1010.3
20260510063855 9 1 0.0 0.0 0.00 0.00 0.00 96 1010.3
20260510063351 9 1 0.0 1.6 0.00 0.00 0.00 96 1010.3
20260510062848 9 1 0.0 1.6 0.00 0.00 0.00 96 1010.3
20260510062343 9 0 0.0 1.6 0.00 0.00 0.00 96 1010.3
20260510061839 10 354 0.0 0.0 0.00 0.00 0.00 96 1010.3
20260510061336 10 354 0.0 1.6 0.00 0.00 0.00 96 1010.3
20260510060832 10 354 0.0 1.6 0.00 0.00 0.00 96 1010.3
20260510060330 9 354 0.0 0.0 0.00 0.00 0.00 96 1010.6
20260510055826 9 354 1.6 4.8 0.00 0.00 0.00 96 1010.6
20260510055325 10 354 3.2 4.8 0.00 0.00 0.00 96 1010.6
20260510054824 9 352 1.6 4.8 0.00 0.00 0.00 95 1010.6
20260510054320 9 1 3.2 8.0 0.00 0.00 0.00 95 1010.6
20260510053815 10 338 4.8 8.0 0.00 0.00 0.00 95 1010.6
20260510053311 10 347 3.2 4.8 0.00 0.00 0.00 95 1010.6
20260510052808 10 353 3.2 4.8 0.00 0.00 0.00 95 1010.6
20260510052306 10 359 3.2 4.8 0.00 0.00 0.00 95 1010.3
20260510051800 10 7 1.6 3.2 0.00 0.00 0.00 95 1010.3
20260510051256 10 257 0.0 1.6 0.00 0.00 0.00 95 1010.3
20260510050753 10 256 0.0 0.0 0.00 0.00 0.00 95 1010.3
20260510050245 10 256 0.0 1.6 0.00 0.00 0.00 95 1010.3
20260510045742 10 256 0.0 1.6 0.00 0.00 0.00 95 1010.3
20260510045238 10 256 0.0 1.6 0.00 0.00 0.00 95 1010.3
20260510044735 10 256 0.0 1.6 0.00 0.00 0.00 95 1010.3
20260510044233 10 256 0.0 0.0 0.00 0.00 0.00 95 1010.3
20260510043728 10 256 0.0 0.0 0.00 0.00 0.00 95 1010.3
20260510043226 10 256 0.0 0.0 0.00 0.00 0.00 95 1010.3
20260510042722 10 256 0.0 0.0 0.00 0.00 0.00 95 1010.3
20260510042218 10 256 0.0 0.0 0.00 0.00 0.00 95 1010.3
20260510041715 10 256 0.0 1.6 0.00 0.00 0.00 95 1010.6
20260510041213 10 256 0.0 1.6 0.00 0.00 0.00 95 1010.3
20260510040709 10 256 0.0 0.0 0.00 0.00 0.00 95 1010.3
20260510040206 10 256 0.0 0.0 0.00 0.00 0.00 95 1010.6
20260510035701 10 256 0.0 0.0 0.00 0.58 0.58 95 1010.6
20260510035157 10 256 0.0 0.0 0.00 0.58 0.58 95 1010.3
20260510034653 11 256 0.0 0.0 0.00 0.58 0.58 95 1010.3
20260510034150 11 256 0.0 1.6 0.00 0.58 0.58 95 1010.3
20260510033646 11 256 0.0 1.6 0.00 0.58 0.58 95 1010.3
20260510033145 11 256 0.0 1.6 0.00 0.58 0.58 95 1010.3
20260510032641 11 256 0.0 1.6 0.00 0.58 0.58 95 1010.3
20260510032136 11 252 0.0 1.6 0.00 0.58 0.58 95 1010.3
20260510031631 11 251 0.0 0.0 0.00 0.58 0.58 95 1010.3
20260510031129 11 252 0.0 1.6 0.00 0.58 0.58 95 1010.0
20260510030622 11 252 0.0 1.6 0.00 0.58 0.58 95 1010.3
20260510030121 11 251 0.0 3.2 0.00 0.58 0.58 94 1010.3
20260510025617 11 252 0.0 3.2 0.00 0.58 0.58 94 1010.3
20260510025115 11 264 0.0 1.6 0.00 0.58 0.58 95 1010.3
20260510024611 11 175 0.0 4.8 0.00 0.58 0.58 94 1010.3
20260510024108 11 160 0.0 4.8 0.00 0.58 0.58 94 1010.3
20260510023604 10 252 0.0 4.8 0.00 0.58 0.58 95 1010.0
20260510023102 10 145 0.0 1.6 0.00 0.58 0.58 94 1010.3
20260510022601 10 145 0.0 1.6 0.00 0.58 0.58 94 1010.0
20260510022056 10 145 0.0 1.6 0.00 0.58 0.58 94 1010.0
20260510021553 10 145 0.0 1.6 0.00 0.58 0.58 94 1010.3
20260510021050 10 145 0.0 1.6 0.00 0.58 0.58 94 1010.0
20260510020550 10 145 0.0 1.6 0.00 0.58 0.58 94 1010.0
20260510020045 10 148 0.0 1.6 0.00 0.58 0.58 94 1010.0
20260510015536 10 148 0.0 3.2 0.00 0.58 0.58 94 1010.0
20260510015032 10 150 0.0 3.2 0.00 0.58 0.58 94 1010.0
20260510014528 10 172 0.0 0.0 0.00 0.58 0.58 93 1010.0
20260510014025 10 172 0.0 0.0 0.00 0.58 0.58 93 1010.0
20260510013521 10 172 0.0 0.0 0.00 0.58 0.58 93 1010.0
20260510013016 10 174 0.0 0.0 0.00 0.58 0.58 93 1010.0
20260510012510 10 174 0.0 0.0 0.00 0.58 0.58 92 1010.0
20260510012007 10 174 0.0 0.0 0.00 0.58 0.58 92 1010.0
20260510011502 10 174 0.0 0.0 0.00 0.58 0.58 92 1010.0
20260510010957 10 174 0.0 0.0 0.00 0.58 0.58 92 1010.0
20260510010455 10 174 0.0 1.6 0.00 0.58 0.58 92 1010.0
20260510005951 11 174 1.6 1.6 0.00 0.58 0.58 91 1009.6
20260510005447 11 174 1.6 1.6 0.00 0.58 0.58 91 1009.6
20260510004945 11 174 0.0 1.6 0.00 0.58 0.58 91 1009.6
20260510004442 11 174 0.0 0.0 0.00 0.58 0.58 90 1009.6
20260510003940 11 174 0.0 0.0 0.00 0.58 0.58 89 1009.6
20260510003437 11 174 0.0 0.0 0.00 0.58 0.58 89 1009.6
20260510002936 11 174 0.0 0.0 0.00 0.58 0.58 90 1009.3
20260510002433 11 174 0.0 0.0 0.00 0.58 0.58 89 1009.3
20260510001929 12 174 0.0 0.0 0.00 0.58 0.58 89 1009.3
20260510001427 12 174 0.0 0.0 0.00 0.58 0.58 88 1009.3
20260510000924 12 174 0.0 0.0 0.00 0.58 0.58 87 1009.3
20260510000421 12 174 0.0 0.0 0.00 0.58 0.58 86 1008.9
20260509235917 12 174 0.0 0.0 0.00 0.58 0.58 85 1009.3
20260509235415 13 174 0.0 0.0 0.00 0.58 0.58 84 1009.3
20260509234910 13 174 0.0 1.6 0.00 0.58 0.58 83 1009.3
20260509234408 13 174 0.0 1.6 0.00 0.58 0.58 83 1009.3
20260509233905 14 174 0.0 3.2 0.00 0.58 0.58 82 1008.9
20260509233402 15 176 0.0 3.2 0.00 0.58 0.58 81 1009.3
20260509232857 15 166 0.0 1.6 0.00 0.58 0.58 82 1008.9
20260509232356 15 164 1.6 1.6 0.00 0.58 0.58 82 1008.9
20260509231851 15 134 1.6 1.6 0.00 0.58 0.58 82 1008.9
20260509231349 15 133 0.0 3.2 0.00 0.58 0.58 82 1008.9
20260509230847 15 229 1.6 4.8 0.00 0.58 0.58 84 1008.9
20260509230343 15 263 1.6 4.8 0.00 0.58 0.58 84 1008.9
20260509225838 15 252 0.0 4.8 0.00 0.58 0.58 82 1008.9
20260509225336 15 252 0.0 3.2 0.00 0.58 0.58 84 1008.9
20260509224832 15 252 1.6 4.8 0.00 0.58 0.58 85 1008.9
20260509224328 15 252 1.6 8.0 0.00 0.58 0.58 85 1008.9
20260509223825 14 231 1.6 8.0 0.00 0.58 0.58 87 1008.9
20260509223322 14 260 1.6 6.4 0.00 0.58 0.58 88 1008.9
20260509222819 13 267 1.6 8.0 0.00 0.58 0.58 88 1008.9
20260509222314 13 205 1.6 8.0 0.00 0.58 0.58 87 1008.9
20260509221809 13 153 1.6 8.0 0.00 0.58 0.58 87 1008.9
20260509221307 13 250 3.2 11.3 0.00 0.58 0.58 88 1008.9
20260509220802 13 257 3.2 11.3 0.00 0.58 0.58 88 1008.9
20260509220259 13 245 3.2 8.0 0.00 0.58 0.58 89 1008.9
20260509215754 13 261 4.8 8.0 0.00 0.58 0.58 88 1008.9
20260509215251 13 269 4.8 8.0 0.00 0.58 0.58 88 1008.9
20260509214748 13 259 4.8 9.7 0.00 0.58 0.58 88 1008.9
20260509214245 13 244 6.4 11.3 0.00 0.58 0.58 86 1008.9
20260509213742 13 252 4.8 11.3 0.00 0.58 0.58 86 1008.9
20260509213238 13 284 3.2 8.0 0.00 0.58 0.58 86 1008.9
20260509212735 13 258 3.2 8.0 0.00 0.58 0.58 87 1008.9
20260509212233 13 263 3.2 8.0 0.00 0.58 0.58 90 1008.9
20260509211728 13 286 3.2 6.4 0.00 0.58 0.58 90 1009.3
20260509211225 13 250 1.6 6.4 0.00 0.58 0.58 90 1008.9
20260509210721 12 226 1.6 6.4 0.00 0.58 0.58 90 1009.3
20260509210219 12 264 1.6 6.4 0.00 0.58 0.58 90 1009.3
20260509205719 12 252 1.6 4.8 0.00 0.58 0.58 90 1009.6
20260509205218 12 250 3.2 8.0 0.00 0.58 0.58 90 1009.3
20260509204715 12 257 4.8 9.7 0.00 0.58 0.58 90 1009.3
20260509204211 12 279 4.8 9.7 0.00 0.58 0.58 90 1009.6
20260509203707 12 259 4.8 9.7 0.00 0.58 0.58 90 1009.6
20260509203206 12 288 4.8 8.0 0.00 0.58 0.58 90 1009.6
20260509202701 12 288 6.4 9.7 0.00 0.58 0.58 90 1009.6
20260509202156 12 247 4.8 9.7 0.03 0.58 0.58 90 1009.6
20260509201651 12 278 3.2 6.4 0.03 0.58 0.58 90 1009.6
20260509201149 12 287 1.6 6.4 0.03 0.58 0.58 90 1009.6
20260509200645 12 281 1.6 6.4 0.05 0.58 0.58 91 1009.6
20260509200140 12 251 1.6 6.4 0.05 0.58 0.58 90 1009.6
20260509195636 12 164 0.0 3.2 0.08 0.58 0.58 92 1009.6
20260509195131 12 164 1.6 3.2 0.08 0.58 0.58 92 1009.6
20260509194630 12 162 1.6 4.8 0.08 0.58 0.58 92 1010.0
20260509194128 12 155 1.6 4.8 0.10 0.58 0.58 92 1009.6
20260509193623 12 191 0.0 3.2 0.10 0.58 0.58 92 1010.0
20260509193119 12 210 0.0 1.6 0.13 0.58 0.58 92 1010.0
20260509192616 12 211 0.0 1.6 0.15 0.58 0.58 92 1010.0
20260509192111 11 112 1.6 4.8 0.13 0.56 0.56 92 1010.0
20260509191606 11 210 3.2 9.7 0.15 0.56 0.56 92 1010.3
20260509191103 11 264 3.2 9.7 0.15 0.56 0.56 92 1010.3
20260509190559 11 277 3.2 6.4 0.13 0.53 0.53 92 1010.3
20260509190057 11 254 4.8 11.3 0.15 0.53 0.53 92 1010.6
20260509185554 11 262 4.8 11.3 0.13 0.51 0.51 91 1010.6
20260509185050 11 248 3.2 6.4 0.13 0.51 0.51 91 1010.6
20260509184549 11 255 3.2 6.4 0.13 0.48 0.48 91 1010.6
20260509184045 11 250 3.2 9.7 0.13 0.48 0.48 91 1010.6
20260509183540 11 262 4.8 9.7 0.13 0.48 0.48 91 1010.6
20260509183036 11 259 6.4 14.5 0.13 0.46 0.46 90 1010.6
20260509182533 11 250 6.4 14.5 0.13 0.43 0.43 90 1010.6
20260509182030 11 279 6.4 12.9 0.15 0.43 0.43 90 1010.6
20260509181528 11 250 4.8 9.7 0.15 0.41 0.41 91 1010.6
20260509181025 11 285 4.8 8.0 0.20 0.41 0.41 91 1010.6
20260509180520 11 274 4.8 11.3 0.23 0.41 0.41 90 1010.6
20260509180019 11 319 3.2 11.3 0.23 0.38 0.38 91 1010.6
20260509175519 11 299 3.2 6.4 0.25 0.38 0.38 91 1010.6
20260509175016 11 278 3.2 6.4 0.25 0.38 0.38 90 1010.6
20260509174513 11 315 3.2 4.8 0.25 0.36 0.36 90 1010.6
20260509174008 12 311 3.2 6.4 0.25 0.36 0.36 90 1010.6
20260509173503 12 288 3.2 6.4 0.28 0.36 0.36 90 1010.6
20260509172959 12 283 3.2 6.4 0.25 0.33 0.33 90 1010.6
20260509172457 12 289 3.2 6.4 0.25 0.33 0.33 89 1010.6
20260509171952 12 266 4.8 11.3 0.25 0.30 0.30 88 1010.6
20260509171448 12 274 8.0 12.9 0.23 0.25 0.25 88 1010.6
20260509170945 12 273 9.7 16.1 0.15 0.20 0.20 87 1010.6
20260509170440 12 269 9.7 16.1 0.13 0.15 0.15 87 1010.6
20260509165937 12 275 8.0 14.5 0.13 0.15 0.15 88 1010.6
20260509165436 12 255 6.4 12.9 0.10 0.13 0.13 88 1010.6
20260509164932 13 266 8.0 14.5 0.10 0.13 0.13 87 1010.6
20260509164428 13 257 8.0 14.5 0.08 0.10 0.10 86 1010.6
20260509163924 13 259 8.0 16.1 0.08 0.10 0.10 86 1010.6
20260509163422 13 267 8.0 17.7 0.05 0.08 0.08 85 1010.6
20260509162920 13 268 6.4 17.7 0.03 0.08 0.08 85 1011.0
20260509162420 13 258 4.8 12.9 0.03 0.05 0.05 84 1011.0
20260509161915 13 231 4.8 12.9 0.00 0.03 0.03 84 1010.6
20260509161411 13 257 6.4 12.9 0.00 0.03 0.03 85 1010.6
20260509160907 13 238 4.8 12.9 0.00 0.03 0.03 83 1010.6
20260509160408 13 243 3.2 9.7 0.00 0.03 0.03 83 1011.0
20260509155903 13 255 3.2 9.7 0.00 0.03 0.03 83 1011.0
20260509155400 13 247 3.2 11.3 0.00 0.03 0.03 83 1011.0
20260509154857 13 248 4.8 11.3 0.00 0.03 0.03 83 1011.0
20260509154353 13 268 3.2 11.3 0.00 0.03 0.03 84 1011.0
20260509153850 13 257 1.6 8.0 0.00 0.03 0.03 84 1011.0
20260509153347 13 240 1.6 9.7 0.03 0.03 0.03 84 1011.0
20260509152844 12 242 4.8 11.3 0.03 0.03 0.03 84 1011.3
20260509152339 12 259 4.8 11.3 0.03 0.03 0.03 84 1011.3
20260509151837 12 246 1.6 9.7 0.03 0.03 0.03 85 1011.0
20260509151333 12 246 1.6 8.0 0.03 0.03 0.03 85 1011.0
20260509150832 12 267 1.6 6.4 0.03 0.03 0.03 84 1011.0
20260509150329 12 176 3.2 8.0 0.03 0.03 0.03 83 1011.0
20260509145826 12 131 1.6 8.0 0.03 0.03 0.03 83 1010.6
20260509145321 13 128 1.6 3.2 0.03 0.03 0.03 84 1010.6
20260509144818 13 208 0.0 3.2 0.03 0.03 0.03 84 1011.0
20260509144315 13 123 0.0 3.2 0.03 0.03 0.03 85 1011.0
20260509143812 12 124 1.6 3.2 0.03 0.03 0.03 84 1011.0
20260509143309 12 166 0.0 3.2 0.00 0.00 0.00 84 1011.0
20260509142805 12 155 0.0 3.2 0.00 0.00 0.00 84 1011.0
20260509142301 12 169 1.6 3.2 0.00 0.00 0.00 83 1011.0
20260509141757 12 127 1.6 3.2 0.00 0.00 0.00 83 1011.0
20260509141254 12 157 0.0 3.2 0.00 0.00 0.00 83 1011.0
20260509140751 12 131 0.0 3.2 0.00 0.00 0.00 83 1011.0
20260509140248 12 136 0.0 3.2 0.00 0.00 0.00 83 1010.6
20260509135745 12 136 0.0 3.2 0.00 0.00 0.00 83 1010.6
20260509135243 12 151 0.0 3.2 0.00 0.00 0.00 83 1010.6
20260509134740 12 151 1.6 6.4 0.00 0.00 0.00 83 1010.6
20260509134237 12 123 1.6 6.4 0.00 0.00 0.00 82 1010.6
20260509133734 12 179 1.6 6.4 0.00 0.00 0.00 82 1010.6
20260509133231 12 164 3.2 9.7 0.00 0.00 0.00 82 1010.6
20260509132730 12 137 4.8 9.7 0.00 0.00 0.00 82 1010.6
20260509132228 12 126 4.8 9.7 0.00 0.00 0.00 82 1010.6
20260509131724 12 160 3.2 9.7 0.00 0.00 0.00 82 1010.6
20260509131221 12 126 1.6 6.4 0.00 0.00 0.00 81 1010.6
20260509130717 12 139 1.6 4.8 0.00 0.00 0.00 81 1010.6
20260509130213 12 139 3.2 6.4 0.00 0.00 0.00 81 1010.6
20260509125710 12 125 3.2 6.4 0.00 0.00 0.00 81 1010.6
20260509125207 12 115 1.6 6.4 0.00 0.00 0.00 80 1010.6
20260509124703 11 132 1.6 4.8 0.00 0.00 0.00 80 1010.6
20260509124200 11 137 1.6 4.8 0.00 0.00 0.00 81 1010.6
20260509123658 11 98 1.6 4.8 0.00 0.00 0.00 80 1010.6
20260509123155 11 129 1.6 4.8 0.00 0.00 0.00 80 1010.6
20260509122650 11 148 1.6 4.8 0.00 0.00 0.00 80 1011.0
20260509122147 11 134 1.6 4.8 0.00 0.00 0.00 80 1011.0
20260509121644 11 193 1.6 3.2 0.00 0.00 0.00 80 1011.0
20260509121142 11 264 1.6 4.8 0.00 0.00 0.00 80 1011.0
20260509120640 11 118 3.2 6.4 0.00 0.00 0.00 80 1011.0